TimeCST,TemperatureF,Dew PointF,Humidity,Sea Level PressureIn,VisibilityMPH,Wind Direction,Wind SpeedMPH,Gust SpeedMPH,PrecipitationIn,Events,Conditions,WindDirDegrees,DateUTC
12:51 AM,37.4,35.6,93,29.88,8.0,SE,16.1,-,0.00,Rain,Light Rain,140,2013-02-10 06:51:00
12:54 AM,37.9,35.1,89,29.90,8.0,SSE,15.0,-,0.00,Rain,Light Rain,150,2013-02-10 06:54:00
1:08 AM,37.9,35.1,89,29.87,8.0,SSE,17.3,-,0.00,,Overcast,150,2013-02-10 07:08:00
1:31 AM,37.9,36.0,93,29.86,4.0,SE,15.0,-,0.02,Rain,Rain,140,2013-02-10 07:31:00
1:54 AM,39.0,37.0,93,29.85,7.0,SE,16.1,24.2,0.10,,Overcast,130,2013-02-10 07:54:00
2:49 AM,39.2,37.4,93,29.82,7.0,SSE,13.8,-,0.01,,Overcast,150,2013-02-10 08:49:00
2:54 AM,39.9,37.0,89,29.83,8.0,SSE,15.0,-,0.01,,Overcast,150,2013-02-10 08:54:00
3:54 AM,41.0,37.9,89,29.78,9.0,SSE,13.8,-,0.03,,Overcast,150,2013-02-10 09:54:00
4:54 AM,42.1,39.0,89,29.74,7.0,SE,15.0,-,0.01,Rain,Light Rain,140,2013-02-10 10:54:00
5:42 AM,43.0,39.9,89,29.70,5.0,SSE,17.3,-,0.02,Rain-Thunderstorm,Light Rain,150,2013-02-10 11:42:00
5:49 AM,42.8,39.2,87,29.70,7.0,SSE,17.3,-,N/A,Rain-Thunderstorm,Light Thunderstorms and Rain,150,2013-02-10 11:49:00
5:54 AM,43.0,39.9,89,29.71,7.0,SSE,17.3,-,0.03,Rain-Thunderstorm,Light Thunderstorms and Rain,150,2013-02-10 11:54:00
6:06 AM,43.0,41.0,93,29.69,8.0,SE,18.4,-,0.00,Thunderstorm,Overcast,140,2013-02-10 12:06:00
6:14 AM,43.0,41.0,93,29.68,7.0,SE,17.3,-,0.00,,Overcast,140,2013-02-10 12:14:00
6:45 AM,45.0,42.1,90,29.67,5.0,SSE,17.3,24.2,0.02,Rain,Light Rain,150,2013-02-10 12:45:00
6:54 AM,45.0,43.0,93,29.70,6.0,SSE,15.0,-,0.03,Rain,Light Rain,160,2013-02-10 12:54:00
7:54 AM,46.0,44.1,93,29.65,3.0,SSE,17.3,-,0.04,Rain,Light Rain,160,2013-02-10 13:54:00
8:29 AM,46.9,45.0,93,29.62,1.8,SSE,16.1,-,0.05,Rain,Heavy Rain,150,2013-02-10 14:29:00
8:44 AM,46.9,46.0,97,29.61,2.0,SSE,13.8,24.2,0.11,Rain,Light Rain,160,2013-02-10 14:44:00
8:49 AM,46.4,46.4,100,29.61,3.0,SSE,13.8,-,0.11,Rain,Light Rain,160,2013-02-10 14:49:00
8:54 AM,48.0,46.0,93,29.61,4.0,SSE,15.0,-,0.12,Rain,Light Rain,160,2013-02-10 14:54:00
9:54 AM,51.1,48.0,89,29.59,10.0,South,19.6,29.9,0.00,,Overcast,180,2013-02-10 15:54:00
10:02 AM,51.1,48.0,89,29.58,10.0,SSE,20.7,28.8,N/A,,Overcast,160,2013-02-10 16:02:00
10:18 AM,52.0,48.0,86,29.58,10.0,South,23.0,28.8,N/A,,Overcast,180,2013-02-10 16:18:00
10:54 AM,52.0,48.9,89,29.57,10.0,South,21.9,26.5,N/A,,Overcast,170,2013-02-10 16:54:00
11:54 AM,55.0,51.1,86,29.56,10.0,South,19.6,28.8,N/A,,Overcast,180,2013-02-10 17:54:00
12:28 PM,57.9,51.1,78,29.54,10.0,South,18.4,28.8,N/A,,Scattered Clouds,190,2013-02-10 18:28:00
12:54 PM,60.1,51.1,72,29.53,10.0,SSW,23.0,31.1,N/A,,Partly Cloudy,200,2013-02-10 18:54:00
1:54 PM,61.0,39.0,44,29.51,10.0,SSW,34.5,44.9,N/A,,Partly Cloudy,210,2013-02-10 19:54:00
2:54 PM,61.0,32.0,34,29.51,10.0,SW,25.3,44.9,N/A,,Clear,220,2013-02-10 20:54:00
3:54 PM,60.1,28.9,31,29.51,10.0,SSW,27.6,41.4,N/A,,Clear,210,2013-02-10 21:54:00
4:54 PM,57.0,30.0,36,29.57,10.0,WSW,26.5,34.5,N/A,,Clear,240,2013-02-10 22:54:00
5:54 PM,53.1,30.9,43,29.63,10.0,WSW,23.0,34.5,N/A,,Clear,240,2013-02-10 23:54:00
6:54 PM,51.1,30.9,46,29.66,10.0,WSW,23.0,33.4,N/A,,Clear,240,2013-02-11 00:54:00
7:54 PM,48.0,30.0,50,29.69,10.0,WSW,13.8,24.2,N/A,,Clear,250,2013-02-11 01:54:00
8:54 PM,45.0,28.9,53,29.73,10.0,WSW,26.5,46.0,N/A,,Partly Cloudy,250,2013-02-11 02:54:00
9:54 PM,43.0,27.0,53,29.77,10.0,WSW,24.2,38.0,N/A,,Clear,250,2013-02-11 03:54:00
10:54 PM,42.1,26.1,53,29.81,10.0,West,31.1,41.4,N/A,,Overcast,270,2013-02-11 04:54:00
11:54 PM,39.9,24.1,53,29.85,10.0,West,20.7,31.1,N/A,,Overcast,270,2013-02-11 05:54:00